Date String (YYYY-MM-DD hh:mm:ss) UTC,Instrument flags,absolute air pressure of the measurement (hPa),sample flow rate (lpm),inlet stack bypass flow (lpm),air temperature of the measurement (°C),ambient temperature measured by the external sensor (°C),aerosol sample conditioner tube jacket temperature (°C),OPC LED temperature (°C),internal box temperature (°C),relative humidity of the measurement (%),span deviation,mass concentration of particles derived from Lorenz-Mie calculation of OPC scattering (μg/m³),mass concentration of particles derived from Lorenz-Mie calculation of OPC scattering (μg/m³),mass concentration of particles derived from Lorenz-Mie calculation of OPC scattering (μg/m³)
DateTimeUTC,F1_M11,P_M11,Q1_M11,Q2_M11,T1_M11,T2_M11,T3_M11,T4_M11,T5_M11,U1_M11,ZSPAN_M11,X2_M11,X0_M11,X1_M11
2023-07-07 23:00:00,SystemResetWarning,0832.8,5.01,000.00,029.1,027.8,000.0,037.5,030.8,30.8,-000.6,0004.83,0009.56,0004.36
2023-07-07 23:01:00,SystemResetWarning,0832.8,4.99,000.00,029.2,028.0,000.0,037.6,030.9,30.7,-000.9,0004.82,0009.55,0004.35
2023-07-07 23:02:00,SystemResetWarning,0833.3,4.99,000.00,029.2,028.1,000.0,037.6,030.9,30.5,-000.8,0004.84,0009.59,0004.35
2023-07-07 23:03:00,SystemResetWarning,0832.8,5.00,000.00,029.3,027.6,000.0,037.6,030.9,30.4,-000.6,0004.86,0009.60,0004.33
2023-07-07 23:04:00,SystemResetWarning,0832.7,5.00,000.00,029.2,025.9,000.0,037.4,030.7,30.1,-000.9,0004.81,0009.55,0004.31
2023-07-07 23:05:00,SystemResetWarning,0832.7,5.00,000.00,029.1,025.3,000.0,037.4,030.5,29.8,-000.7,0004.78,0009.59,0004.28
2023-07-07 23:06:00,SystemResetWarning,0832.8,5.00,000.00,029.1,025.5,000.0,037.4,030.3,30.4,-000.5,0004.78,0009.20,0004.27
2023-07-07 23:07:00,SystemResetWarning,0832.7,5.01,000.00,029.0,025.8,000.0,037.4,030.3,30.9,-000.5,0004.72,0008.64,0004.25
2023-07-07 23:08:00,SystemResetWarning,0832.8,5.00,000.00,029.0,026.3,000.0,037.5,030.4,31.2,-000.6,0004.70,0008.79,0004.23
2023-07-07 23:09:00,SystemResetWarning,0832.9,5.00,000.00,029.0,026.6,000.0,037.5,030.5,31.3,-000.5,0004.69,0009.10,0004.22
2023-07-07 23:10:00,SystemResetWarning,0832.8,5.00,000.00,029.0,027.0,000.0,037.5,030.6,31.6,-000.7,0004.69,0009.38,0004.22
2023-07-07 23:11:00,SystemResetWarning,0832.7,5.00,000.00,029.1,027.3,000.0,037.5,030.7,31.4,-001.1,0004.70,0009.09,0004.21
2023-07-07 23:12:00,SystemResetWarning,0832.7,5.00,000.00,029.1,027.5,000.0,037.5,030.7,30.9,-000.8,0004.70,0009.15,0004.20
2023-07-07 23:13:00,SystemResetWarning,0832.6,4.98,000.00,029.1,027.7,000.0,037.5,030.8,31.1,-000.7,0004.67,0009.17,0004.19
2023-07-07 23:14:00,SystemResetWarning,0832.7,5.01,000.00,029.2,027.9,000.0,037.6,030.8,30.9,-001.3,0004.69,0009.46,0004.20
2023-07-07 23:15:00,SystemResetWarning,0832.7,5.01,000.00,029.2,028.1,000.0,037.6,030.9,30.9,-001.1,0004.69,0009.46,0004.20
2023-07-07 23:16:00,SystemResetWarning,0832.7,4.99,000.00,029.2,027.2,000.0,037.5,030.9,31.1,-000.7,0004.71,0009.34,0004.21
2023-07-07 23:17:00,SystemResetWarning,0832.7,4.99,000.00,029.2,025.7,000.0,037.4,030.7,30.9,-000.8,0004.72,0009.24,0004.22
2023-07-07 23:18:00,SystemResetWarning,0832.6,5.01,000.00,029.1,025.3,000.0,037.4,030.5,31.0,-000.8,0004.71,0009.22,0004.23
2023-07-07 23:19:00,SystemResetWarning,0832.7,5.01,000.00,029.0,025.5,000.0,037.4,030.3,31.2,-001.0,0004.73,0009.81,0004.24
2023-07-07 23:20:00,SystemResetWarning,0832.6,4.99,000.00,029.0,025.9,000.0,037.4,030.3,31.7,-001.0,0004.73,0009.55,0004.26
2023-07-07 23:21:00,SystemResetWarning,0832.5,5.01,000.00,029.0,026.3,000.0,037.5,030.4,32.0,-001.0,0004.72,0009.06,0004.25
2023-07-07 23:22:00,SystemResetWarning,0832.5,5.00,000.00,029.0,026.7,000.0,037.5,030.5,32.1,0000.2,0004.72,0008.94,0004.27
2023-07-07 23:23:00,SystemResetWarning,0832.6,4.99,000.00,029.0,027.0,000.0,037.5,030.6,32.3,0000.3,0004.74,0008.79,0004.28
2023-07-07 23:24:00,SystemResetWarning,0832.6,5.00,000.00,029.0,027.3,000.0,037.5,030.7,32.4,0000.3,0004.77,0009.74,0004.30
2023-07-07 23:25:00,SystemResetWarning,0832.6,5.01,000.00,029.1,027.5,000.0,037.5,030.7,32.3,0000.6,0004.75,0009.75,0004.32
2023-07-07 23:26:00,SystemResetWarning,0832.6,5.00,000.00,029.1,027.7,000.0,037.5,030.8,32.1,0000.7,0004.76,0009.96,0004.34
2023-07-07 23:27:00,SystemResetWarning,0832.7,5.00,000.00,029.1,027.9,000.0,037.6,030.8,31.7,0000.5,0004.78,0010.53,0004.35
2023-07-07 23:28:00,SystemResetWarning,0832.8,5.01,000.00,029.2,028.0,000.0,037.6,030.9,31.8,0000.3,0004.78,0010.69,0004.36
2023-07-07 23:29:00,SystemResetWarning,0832.7,5.00,000.00,029.2,028.1,000.0,037.6,030.9,32.0,0000.0,0004.78,0010.57,0004.36
2023-07-07 23:30:00,SystemResetWarning,0832.7,4.99,000.00,029.3,028.2,000.0,037.6,031.0,31.7,0000.4,0004.82,0010.27,0004.39
2023-07-07 23:31:00,SystemResetWarning,0832.8,5.00,000.00,029.3,027.2,000.0,037.6,030.9,31.6,0000.8,0004.87,0010.71,0004.41
2023-07-07 23:32:00,SystemResetWarning,0832.7,5.00,000.00,029.2,025.6,000.0,037.5,030.7,31.9,0000.7,0004.92,0010.86,0004.45
2023-07-07 23:33:00,SystemResetWarning,0832.7,5.00,000.00,029.2,025.3,000.0,037.4,030.4,32.0,0000.1,0004.95,0010.99,0004.49
2023-07-07 23:34:00,SystemResetWarning,0832.9,5.01,000.00,029.0,025.5,000.0,037.5,030.3,32.3,-000.2,0004.98,0011.04,0004.52
2023-07-07 23:35:00,SystemResetWarning,0832.9,5.01,000.00,029.0,025.9,000.0,037.5,030.4,32.6,0000.1,0005.01,0010.04,0004.55
2023-07-07 23:36:00,SystemResetWarning,0832.7,4.99,000.00,029.0,026.3,000.0,037.5,030.5,32.4,0000.3,0005.04,0009.91,0004.56
2023-07-07 23:37:00,SystemResetWarning,0832.7,4.99,000.00,029.0,026.7,000.0,037.5,030.5,32.5,-000.2,0005.05,0009.92,0004.56
2023-07-07 23:38:00,SystemResetWarning,0832.7,5.01,000.00,029.0,027.0,000.0,037.5,030.6,32.3,-000.1,0005.05,0009.29,0004.57
2023-07-07 23:39:00,SystemResetWarning,0832.7,4.98,000.00,029.1,027.3,000.0,037.5,030.7,32.0,0000.2,0005.07,0009.09,0004.59
2023-07-07 23:40:00,SystemResetWarning,0832.8,5.01,000.00,029.1,027.5,000.0,037.6,030.7,32.0,0000.3,0005.08,0009.20,0004.61
2023-07-07 23:41:00,SystemResetWarning,0832.9,5.00,000.00,029.1,027.7,000.0,037.6,030.8,32.3,-000.0,0005.07,0008.94,0004.61
2023-07-07 23:42:00,SystemResetWarning,0832.8,5.02,000.00,029.2,027.9,000.0,037.6,030.8,32.3,-000.5,0005.04,0008.46,0004.59
2023-07-07 23:43:00,SystemResetWarning,0832.8,4.99,000.00,029.2,028.0,000.0,037.6,030.9,32.1,-000.0,0005.02,0008.64,0004.58
2023-07-07 23:44:00,SystemResetWarning,0832.8,5.00,000.00,029.3,028.2,000.0,037.6,030.9,31.3,-000.2,0004.99,0008.78,0004.57
2023-07-07 23:45:00,SystemResetWarning,0833.1,5.01,000.00,029.3,028.3,000.0,037.7,031.0,31.6,0000.0,0004.97,0008.87,0004.56
2023-07-07 23:46:00,SystemResetWarning,0833.2,4.98,000.00,029.3,027.9,000.0,037.7,031.0,31.6,-000.3,0004.98,0008.89,0004.55
2023-07-07 23:47:00,SystemResetWarning,0833.1,5.01,000.00,029.3,026.2,000.0,037.6,030.8,32.0,-000.2,0004.96,0008.94,0004.55
2023-07-07 23:48:00,SystemResetWarning,0832.9,5.02,000.00,029.2,025.4,000.0,037.5,030.6,32.4,0000.6,0004.98,0008.85,0004.56
2023-07-07 23:49:00,SystemResetWarning,0833.0,4.99,000.00,029.1,025.4,000.0,037.5,030.4,32.5,0000.8,0004.99,0009.06,0004.57
2023-07-07 23:50:00,SystemResetWarning,0833.0,5.00,000.00,029.1,025.8,000.0,037.5,030.4,32.7,0000.7,0005.00,0009.13,0004.57
2023-07-07 23:51:00,SystemResetWarning,0832.9,5.01,000.00,029.0,026.2,000.0,037.5,030.4,32.8,0000.7,0005.02,0009.09,0004.57
2023-07-07 23:52:00,SystemResetWarning,0832.9,5.00,000.00,029.1,026.6,000.0,037.6,030.5,32.4,0001.4,0004.98,0009.06,0004.57
2023-07-07 23:53:00,SystemResetWarning,0832.9,5.00,000.00,029.1,026.9,000.0,037.6,030.6,32.3,0001.8,0004.99,0009.46,0004.58
2023-07-07 23:54:00,SystemResetWarning,0832.9,5.00,000.00,029.1,027.2,000.0,037.6,030.7,32.5,0001.3,0005.01,0009.24,0004.59
2023-07-07 23:55:00,SystemResetWarning,0832.9,5.00,000.00,029.1,027.4,000.0,037.6,030.7,32.5,0001.1,0005.02,0008.99,0004.58
2023-07-07 23:56:00,SystemResetWarning,0833.0,5.00,000.00,029.2,027.6,000.0,037.6,030.8,32.7,0000.8,0005.07,0009.13,0004.59
2023-07-07 23:57:00,SystemResetWarning,0833.0,5.00,000.00,029.2,027.8,000.0,037.6,030.8,31.4,0000.7,0005.08,0009.29,0004.61
2023-07-07 23:58:00,SystemResetWarning,0832.9,5.01,000.00,029.2,027.9,000.0,037.6,030.9,31.2,0000.2,0005.12,0010.17,0004.63
2023-07-07 23:59:00,SystemResetWarning,0832.9,5.00,000.00,029.3,028.1,000.0,037.7,030.9,31.2,-000.4,0005.16,0010.79,0004.65
